Tracking 29892 objects as of 21-Nov-2024
HD Live streaming from Space Station
objects crossing your sky now

STARLINK-5700

Track STARLINK-5700 now!
10-day predictions
STARLINK-5700 is classified as:


NORAD ID: 55607
Int'l Code: 2023-020AQ
Perigee: 565.3 km
Apogee: 567.2 km
Inclination: 43.0 °
Period: 95.8 minutes
Semi major axis: 6937 km
RCS: Unknown
Launch date: February 12, 2023
Source: United States (US)
Launch site: AIR FORCE EASTERN TEST RANGE (AFETR)
Your satellite tracking list
Your tracking list is empty




NASA's NSSDC Master Catalog

Two Line Element Set (TLE):
1 55607U 23020AQ  24325.61249774 -.00000726  00000-0 -38702-4 0  9997
2 55607  43.0056  47.8555 0001343 275.1592  84.9097 15.02527084 97758
Source of the keplerian elements: AFSPC